Location: Chena
(64.8152°N, 147.9227°W)
Time: 19:33:21
(UTC+00:00)

Altair - Visible Passes

Search period start: 28 February 2021 00:00
Search period end: 10 March 2021 00:00
Orbit: 1501 x 1682 km, 47.2° (Epoch: 28 February)

Date Brightness Start Highest point End Pass type
(mag) Time Alt. Az. Time Alt. Az. Time Alt. Az.
28 Feb 9.0 04:31:28 10° SSE 04:33:43 11° SE 04:35:58 10° ESE visible
28 Feb 8.5 06:28:38 10° SSW 06:34:33 22° SSE 06:34:33 22° SSE visible
28 Feb 8.9 08:30:09 10° SW 08:32:36 17° SW 08:32:36 17° SW visible
01 Mar 9.1 04:08:11 10° SE 04:08:48 10° SE 04:09:25 10° SE visible
01 Mar 8.5 06:03:49 10° SSW 06:10:19 22° SSE 06:11:05 21° SSE visible
01 Mar 8.7 08:05:09 10° SW 08:09:07 22° SSW 08:09:07 22° SSW visible
02 Mar 8.5 05:39:00 10° SSW 05:45:20 21° SSE 05:47:32 19° SE visible
02 Mar 8.5 07:40:10 10° SW 07:45:34 25° SSW 07:45:34 25° SSW visible
02 Mar 9.3 09:43:03 10° WSW 09:43:36 11° WSW 09:43:36 11° WSW visible
03 Mar 8.6 05:14:12 10° SSW 05:20:21 20° SSE 05:23:55 16° SE visible
03 Mar 8.4 07:15:12 10° SW 07:21:57 27° S 07:21:57 27° S visible
03 Mar 9.1 09:17:58 10° WSW 09:19:59 15° WSW 09:19:59 15° WSW visible
04 Mar 8.7 04:49:26 10° S 04:55:23 19° SSE 05:00:15 13° ESE visible
04 Mar 8.3 06:50:14 10° SW 06:57:30 26° S 06:58:17 26° SSE visible
04 Mar 8.9 08:52:54 10° WSW 08:56:19 19° SW 08:56:19 19° SW visible
05 Mar 8.8 04:24:41 10° S 04:30:25 18° SSE 04:36:15 10° ESE visible
05 Mar 8.4 06:25:17 10° SW 06:32:30 26° S 06:34:35 24° SSE visible
05 Mar 8.7 08:27:51 10° WSW 08:32:36 22° SW 08:32:36 22° SW visible
06 Mar 8.9 03:59:58 10° S 04:05:28 18° SSE 04:11:02 10° ESE visible
06 Mar 8.5 06:00:20 10° SW 06:07:29 26° S 06:10:50 21° SE visible
06 Mar 8.5 08:02:48 10° WSW 08:08:51 24° SSW 08:08:51 24° SSW visible
07 Mar 8.5 05:35:24 10° SW 05:42:29 25° S 05:47:04 18° SE visible
07 Mar 8.5 07:37:45 10° WSW 07:44:48 25° SSW 07:45:05 25° S visible
07 Mar 9.2 09:41:52 10° WSW 09:43:06 12° WSW 09:43:06 12° WSW visible
08 Mar 8.6 05:10:28 10° SW 05:17:29 25° SSE 05:23:17 14° SE visible
08 Mar 8.4 07:12:43 10° WSW 07:19:47 25° SSW 07:21:18 24° S visible
08 Mar 9.1 09:16:39 10° WSW 09:19:18 15° SW 09:19:18 15° SW visible
09 Mar 8.6 04:45:33 10° SW 04:52:29 25° SSE 04:59:29 10° ESE visible
09 Mar 8.5 06:47:41 10° WSW 06:54:47 25° S 06:57:30 22° SSE visible
09 Mar 8.9 08:51:27 10° WSW 08:55:31 16° SW 08:55:31 16° SW visible
